TimeEST,TemperatureF,Dew PointF,Humidity,Sea Level PressureIn,VisibilityMPH,Wind Direction,Wind SpeedMPH,Gust SpeedMPH,PrecipitationIn,Events,Conditions,WindDirDegrees,DateUTC
12:51 AM,39.0,27.0,62,30.09,10.0,North,16.1,-,N/A,,Mostly Cloudy,350,2013-02-25 05:51:00
1:51 AM,37.9,21.9,53,30.11,10.0,North,15.0,-,N/A,,Clear,350,2013-02-25 06:51:00
2:51 AM,37.0,21.9,54,30.11,10.0,North,12.7,18.4,N/A,,Clear,350,2013-02-25 07:51:00
3:51 AM,36.0,21.9,57,30.13,10.0,North,11.5,-,N/A,,Clear,350,2013-02-25 08:51:00
4:51 AM,36.0,23.0,59,30.13,10.0,North,15.0,20.7,N/A,,Clear,350,2013-02-25 09:51:00
5:51 AM,36.0,24.1,62,30.14,10.0,North,11.5,18.4,N/A,,Clear,360,2013-02-25 10:51:00
6:51 AM,36.0,25.0,64,30.14,10.0,North,15.0,23.0,N/A,,Clear,360,2013-02-25 11:51:00
7:51 AM,37.0,26.1,65,30.16,10.0,North,13.8,20.7,N/A,,Clear,10,2013-02-25 12:51:00
8:51 AM,37.9,25.0,60,30.18,10.0,North,15.0,21.9,N/A,,Clear,10,2013-02-25 13:51:00
9:51 AM,39.9,28.0,63,30.20,10.0,North,9.2,-,N/A,,Clear,360,2013-02-25 14:51:00
10:51 AM,41.0,28.0,60,30.20,10.0,North,10.4,-,N/A,,Partly Cloudy,10,2013-02-25 15:51:00
11:51 AM,41.0,28.0,60,30.22,10.0,North,9.2,-,N/A,,Partly Cloudy,360,2013-02-25 16:51:00
12:51 PM,41.0,27.0,57,30.20,10.0,North,10.4,-,N/A,,Clear,360,2013-02-25 17:51:00
1:51 PM,41.0,27.0,57,30.18,10.0,North,8.1,-,N/A,,Partly Cloudy,10,2013-02-25 18:51:00
2:51 PM,41.0,27.0,57,30.18,10.0,NNE,8.1,-,N/A,,Clear,20,2013-02-25 19:51:00
3:51 PM,39.9,24.1,53,30.19,10.0,NE,3.5,-,N/A,,Clear,40,2013-02-25 20:51:00
4:51 PM,39.9,21.9,49,30.19,10.0,Calm,Calm,-,N/A,,Clear,0,2013-02-25 21:51:00
5:51 PM,39.0,23.0,53,30.20,10.0,Calm,Calm,-,N/A,,Clear,0,2013-02-25 22:51:00
6:51 PM,37.9,26.1,62,30.22,10.0,Calm,Calm,-,N/A,,Clear,0,2013-02-25 23:51:00
7:51 PM,37.0,27.0,67,30.23,10.0,Calm,Calm,-,N/A,,Clear,0,2013-02-26 00:51:00
8:51 PM,36.0,28.0,73,30.22,10.0,NE,4.6,-,N/A,,Clear,50,2013-02-26 01:51:00
9:51 PM,36.0,28.9,76,30.22,10.0,East,3.5,-,N/A,,Clear,90,2013-02-26 02:51:00
10:51 PM,35.1,28.0,76,30.19,10.0,ENE,3.5,-,N/A,,Clear,60,2013-02-26 03:51:00
11:51 PM,36.0,28.9,76,30.18,10.0,ENE,4.6,-,N/A,,Clear,60,2013-02-26 04:51:00